RH
20 20 21 21 21 20 19 19 19 22 18 14 13 11 10 9 10 17 25 19 22 25 28 38 39 43 47 58 58 45 29 27 22 24 26 27 27 32
27 29 28 27 26 24 23 22 22 22 24 19 17 14 12 10 9 8 9 15 20 20 22 28 33 41 44 48 61 55 40 28 29 28 24 26 28 32
31 32 32 30 29 27 27 25 24 24 22 19 19 17 15 12 10 9 8 7 7 18 19 26 31 36 43 43 49 64 54 36 29 28 20 21 28 28
35 36 36 33 31 31 29 26 27 27 25 20 20 19 17 16 13 11 9 8 7 5 16 22 28 35 37 41 44 53 67 47 34 26 25 25 29 28
37 38 37 35 33 32 33 32 31 31 28 24 21 21 19 18 15 14 12 10 9 8 5 12 23 31 36 39 42 47 59 65 43 31 28 36 40 40
34 34 35 35 34 37 36 34 33 31 28 24 21 22 22 21 20 18 15 14 12 10 8 6 6 17 24 32 32 39 50 66 57 43 31 30 35 43
34 35 38 39 39 42 41 39 36 33 31 30 25 26 26 26 27 27 24 22 16 15 12 9 8 5 8 17 29 36 43 56 69 58 43 35 31 43
38 37 38 37 37 37 37 37 35 35 34 33 30 31 30 32 32 31 30 31 26 23 20 12 11 8 7 16 19 32 40 51 58 68 58 39 38 32
37 36 33 33 33 32 31 32 34 36 36 37 32 28 31 35 36 35 35 33 30 32 32 21 17 11 7 15 24 34 41 46 55 63 71 55 36 38
37 36 35 32 30 34 35 33 32 33 35 35 34 27 34 37 42 46 46 46 40 36 41 34 23 17 15 9 17 28 40 41 49 60 70 69 51 33
37 35 34 35 34 35 36 32 31 32 35 38 41 43 45 45 48 55 55 55 43 42 49 47 35 26 20 21 20 22 34 41 45 56 65 73 68 45
38 37 35 36 36 36 35 33 32 35 39 44 49 51 55 54 54 61 64 64 53 51 46 60 48 43 36 20 15 19 28 44 42 48 60 68 80 63
39 39 37 36 36 36 36 35 36 37 43 53 59 60 60 56 53 58 63 61 56 51 56 64 62 55 46 29 20 10 38 40 47 49 57 66 78 80
42 42 40 36 35 37 35 37 38 43 51 60 67 71 65 55 51 54 59 62 59 59 73 83 83 78 64 48 28 31 40 50 50 49 57 60 77 82
39 43 41 37 38 37 37 39 44 53 62 68 76 71 64 62 57 48 59 72 73 79 83 84 86 82 77 64 40 25 61 57 47 51 60 64 71 78
31 36 37 39 41 40 42 47 55 63 68 75 80 78 74 70 62 62 62 80 82 90 95 95 94 93 85 64 47 48 72 77 59 55 62 67 77 79
28 21 22 30 35 38 46 55 64 67 71 82 82 85 87 81 74 64 66 72 81 89 91 92 89 91 82 71 44 69 86 78 70 60 75 80 81 75
26 21 17 13 15 33 46 58 70 70 74 84 86 85 85 82 70 61 73 79 79 75 75 82 93 81 72 63 46 65 81 72 71 71 86 85 83 73
26 20 15 14 13 12 20 52 66 75 81 89 92 91 85 86 89 68 67 80 84 80 75 84 89 81 65 46 63 82 87 75 68 84 87 84 79 75
28 21 16 15 16 15 13 17 46 81 86 88 96 92 87 92 89 81 74 69 76 81 78 78 72 64 50 62 72 81 81 76 71 75 88 87 80 81
31 24 19 17 19 18 17 16 17 44 85 89 90 92 91 92 83 92 95 72 68 69 70 64 53 45 73 78 90 92 86 83 87 83 89 96 83 89
33 27 21 20 21 22 20 23 18 24 43 81 87 95 95 96 91 92 82 74 65 62 66 64 72 72 81 87 94 85 85 89 98 98 94 97 85 85
36 32 25 23 23 24 24 24 25 22 24 45 72 81 93 96 97 97 97 97 87 76 80 88 91 87 97 98 92 88 88 93 92 95 98 99 89 88